KC0HJX Weather Reports


time (UTC)temp
F
wind
direction
speed
knots
gust
knots
rain 1hr
in
rain 24hr
in
rain mn
in
humidity
%
barometer
mb
20260507032524 53 0 0.0 0.9 0.00 0.00 0.00 67 1018.8
20260507032003 53 31 0.0 0.9 0.00 0.00 0.00 66 1018.4
20260507031503 53 31 0.0 0.9 0.00 0.00 0.00 66 1018.1
20260507031023 54 0 0.0 0.9 0.00 0.00 0.00 64 1018.5
20260507030502 54 31 0.0 0.9 0.00 0.00 0.00 64 1018.3
20260507030002 54 31 0.0 0.9 0.00 0.00 0.00 63 1018.2
20260507025524 55 0 0.0 0.9 0.00 0.00 0.00 62 1018.3
20260507025024 55 0 0.0 1.7 0.00 0.00 0.00 61 1018.5
20260507024503 56 31 0.0 1.7 0.00 0.00 0.00 59 1017.8
20260507024002 56 31 0.9 1.7 0.00 0.00 0.00 60 1018.1
20260507023502 56 14 0.0 1.7 0.00 0.00 0.00 59 1017.9
20260507023002 57 0 0.0 2.6 0.00 0.00 0.00 58 1018.1
20260507022502 57 20 0.0 3.5 0.00 0.00 0.00 56 1017.9
20260507022002 58 44 0.9 3.5 0.00 0.00 0.00 55 1017.7
20260507021524 58 38 0.0 5.2 0.00 0.00 0.00 55 1017.6
20260507021002 58 42 0.9 5.2 0.00 0.00 0.00 54 1017.8
20260507020524 58 36 1.7 5.2 0.00 0.00 0.00 54 1017.7
20260507020002 59 0 0.0 2.6 0.00 0.00 0.00 54 1017.8
20260507015502 59 49 0.0 6.1 0.00 0.00 0.00 53 1018.0
20260507015002 59 50 1.7 6.1 0.00 0.00 0.00 53 1017.4
20260507014502 60 14 0.9 8.7 0.00 0.00 0.00 52 1017.4
20260507014002 60 43 3.5 8.7 0.00 0.00 0.00 52 1017.5
20260507013502 60 56 3.5 7.8 0.00 0.00 0.00 51 1017.3
20260507013002 60 46 2.6 7.8 0.00 0.00 0.00 51 1017.2
20260507012502 60 47 1.7 8.7 0.00 0.00 0.00 51 1017.2
20260507012003 60 35 2.6 8.7 0.00 0.00 0.00 51 1017.1
20260507011503 61 17 3.5 7.0 0.00 0.00 0.00 50 1017.2
20260507011003 61 60 3.5 7.0 0.00 0.00 0.00 51 1017.5
20260507010502 61 88 1.7 7.8 0.00 0.00 0.00 51 1017.4
20260507010003 61 30 2.6 8.7 0.00 0.00 0.00 50 1017.0
20260507005503 61 37 2.6 9.6 0.00 0.00 0.00 51 1016.9
20260507005002 61 22 3.5 9.6 0.00 0.00 0.00 50 1016.8
20260507004523 62 16 4.3 11.3 0.00 0.00 0.00 50 1017.1
20260507004002 62 46 3.5 11.3 0.00 0.00 0.00 50 1016.9
20260507003502 62 15 3.5 11.3 0.00 0.00 0.00 50 1016.8
20260507003003 62 28 2.6 7.0 0.00 0.00 0.00 49 1016.9
20260507002503 62 32 3.5 9.6 0.00 0.00 0.00 50 1016.7
20260507002003 62 54 1.7 9.6 0.00 0.00 0.00 50 1016.9
20260507001502 62 66 4.3 9.6 0.00 0.00 0.00 50 1016.7
20260507001002 62 42 1.7 7.8 0.00 0.00 0.00 50 1016.7
20260507000502 62 64 4.3 7.8 0.00 0.00 0.00 50 1016.6
20260507000023 62 48 1.7 7.8 0.00 0.00 0.00 49 1016.5
20260506235502 63 38 4.3 8.7 0.00 0.00 0.00 49 1016.9
20260506235002 63 57 0.9 8.7 0.00 0.00 0.00 49 1016.3
20260506234523 63 44 2.6 8.7 0.00 0.00 0.00 50 1016.7
20260506234002 63 65 2.6 7.0 0.00 0.00 0.00 48 1016.6
20260506233502 63 25 1.7 9.6 0.00 0.00 0.00 48 1016.1
20260506233003 64 53 3.5 9.6 0.00 0.00 0.00 47 1016.2
20260506232503 64 3 4.3 9.6 0.00 0.00 0.00 47 1016.2
20260506232003 64 103 2.6 9.6 0.00 0.00 0.00 47 1016.6
20260506231502 65 57 3.5 9.6 0.00 0.00 0.00 46 1016.1
20260506231002 65 53 5.2 9.6 0.00 0.00 0.00 47 1016.3
20260506230524 65 80 3.5 9.6 0.00 0.00 0.00 47 1016.3
20260506230003 65 76 4.3 9.6 0.00 0.00 0.00 47 1016.1
20260506225502 65 102 4.3 8.7 0.00 0.00 0.00 47 1016.0
20260506225003 65 70 3.5 12.2 0.00 0.00 0.00 49 1016.3
20260506224502 64 33 1.7 12.2 0.00 0.00 0.00 48 1015.8
20260506224003 64 9 5.2 12.2 0.00 0.00 0.00 47 1015.9
20260506223503 64 35 4.3 9.6 0.00 0.00 0.00 48 1015.8
20260506223003 64 85 3.5 9.6 0.00 0.00 0.00 47 1016.1
20260506222503 64 33 3.5 12.2 0.00 0.00 0.00 48 1015.6
20260506222002 64 69 6.1 12.2 0.00 0.00 0.00 48 1015.6
20260506221503 64 68 2.6 12.2 0.00 0.00 0.00 48 1015.6
20260506221003 64 93 6.1 12.2 0.00 0.00 0.00 48 1015.7
20260506220502 64 25 6.1 12.2 0.00 0.00 0.00 47 1016.3
20260506220002 64 34 3.5 9.6 0.00 0.00 0.00 49 1015.4
20260506215502 64 4 3.5 9.6 0.00 0.00 0.00 48 1015.8
20260506215023 65 64 3.5 9.6 0.00 0.00 0.00 48 1015.7
20260506214502 65 37 3.5 9.6 0.00 0.00 0.00 48 1015.7
20260506214003 65 57 3.5 9.6 0.00 0.00 0.00 47 1015.5
20260506213502 65 51 5.2 8.7 0.00 0.00 0.00 48 1015.8
20260506213002 65 71 4.3 8.7 0.00 0.00 0.00 47 1015.7
20260506212502 64 35 1.7 12.2 0.00 0.00 0.00 48 1015.8
20260506212002 65 64 4.3 12.2 0.00 0.00 0.00 47 1015.8
20260506211524 64 119 1.7 8.7 0.00 0.00 0.00 50 1016.3
20260506211003 64 112 1.7 9.6 0.00 0.00 0.00 49 1015.9
20260506210503 64 93 3.5 11.3 0.00 0.00 0.00 52 1016.1
20260506210003 64 64 4.3 11.3 0.00 0.00 0.00 53 1016.1
20260506205502 64 112 4.3 11.3 0.00 0.00 0.00 52 1016.0
20260506205023 63 13 2.6 12.2 0.00 0.00 0.00 52 1016.2
20260506204503 62 24 3.5 12.2 0.00 0.00 0.00 53 1016.4
20260506204024 63 49 6.1 12.2 0.00 0.00 0.00 52 1016.3
20260506203503 63 43 1.7 7.8 0.00 0.00 0.00 54 1016.4
20260506203002 62 6 4.3 8.7 0.00 0.00 0.00 53 1016.4
20260506202502 62 28 4.3 11.3 0.00 0.00 0.00 54 1016.5
20260506202002 62 33 4.3 11.3 0.00 0.00 0.00 53 1016.3
20260506201502 62 77 5.2 14.8 0.00 0.00 0.00 52 1016.7
20260506201002 63 41 5.2 14.8 0.00 0.00 0.00 52 1016.5
20260506200503 62 22 2.6 9.6 0.00 0.00 0.00 55 1016.2
20260506200003 62 26 5.2 13.0 0.00 0.00 0.00 52 1016.5
20260506195502 62 7 4.3 13.0 0.00 0.00 0.00 53 1016.6
20260506195004 62 53 3.5 13.0 0.00 0.00 0.00 54 1016.7
20260506194503 62 30 4.3 12.2 0.00 0.00 0.00 52 1016.6
20260506194003 62 43 7.0 12.2 0.00 0.00 0.00 53 1016.7
20260506193502 62 7 3.5 11.3 0.00 0.00 0.00 54 1016.4
20260506193003 62 96 5.2 11.3 0.00 0.00 0.00 54 1016.6
20260506192502 61 94 5.2 11.3 0.00 0.00 0.00 54 1017.0
20260506192002 61 90 3.5 11.3 0.00 0.00 0.00 55 1016.9
20260506191524 61 48 4.3 9.6 0.00 0.00 0.00 56 1017.3
20260506191003 60 51 4.3 12.2 0.00 0.00 0.00 56 1016.5
20260506190502 61 51 5.2 12.2 0.00 0.00 0.00 55 1017.3
20260506190002 61 64 5.2 12.2 0.00 0.00 0.00 54 1017.3
20260506185503 61 70 3.5 11.3 0.00 0.00 0.00 54 1017.3
20260506185023 61 64 3.5 11.3 0.00 0.00 0.00 57 1016.9
20260506184502 61 90 4.3 11.3 0.00 0.00 0.00 55 1016.9
20260506184002 61 63 4.3 11.3 0.00 0.00 0.00 55 1017.0
20260506183503 61 87 5.2 11.3 0.00 0.00 0.00 54 1017.0
20260506183003 61 84 2.6 11.3 0.00 0.00 0.00 54 1017.2
20260506182503 62 64 4.3 11.3 0.00 0.00 0.00 52 1017.1
20260506182003 62 112 3.5 11.3 0.00 0.00 0.00 53 1017.2
20260506181524 62 91 3.5 11.3 0.00 0.00 0.00 55 1017.3
20260506181002 61 78 3.5 11.3 0.00 0.00 0.00 55 1017.5
20260506180502 61 58 5.2 9.6 0.00 0.00 0.00 55 1017.3
20260506180003 61 99 5.2 12.2 0.00 0.00 0.00 55 1017.7
20260506175503 60 98 3.5 13.9 0.00 0.00 0.00 55 1017.3
20260506175002 61 34 3.5 13.9 0.00 0.00 0.00 53 1017.7
20260506174503 62 101 5.2 13.9 0.00 0.00 0.00 53 1017.8
20260506174002 61 109 3.5 13.9 0.00 0.00 0.00 56 1017.6
20260506173523 60 70 6.1 13.9 0.00 0.00 0.00 55 1017.4
20260506173002 61 63 5.2 13.0 0.00 0.00 0.00 53 1017.6
20260506172503 61 65 3.5 13.0 0.00 0.00 0.00 54 1017.7
20260506172024 61 50 5.2 13.0 0.00 0.00 0.00 52 1018.0
20260506171503 61 109 3.5 13.9 0.00 0.00 0.00 54 1017.1
20260506171024 61 60 6.1 13.9 0.00 0.00 0.00 54 1017.4
20260506170524 61 125 6.1 20.0 0.00 0.00 0.00 54 1017.5
20260506170002 60 135 6.1 20.0 0.00 0.00 0.00 54 1017.6
20260506165502 61 77 6.1 13.9 0.00 0.00 0.00 53 1017.6
20260506165003 60 85 3.5 14.8 0.00 0.00 0.00 57 1017.5
20260506164524 60 78 6.1 14.8 0.00 0.00 0.00 53 1017.3
20260506164002 60 93 7.0 14.8 0.00 0.00 0.00 54 1017.9
20260506163502 60 112 7.8 14.8 0.00 0.00 0.00 54 1017.9
20260506163002 59 127 5.2 12.2 0.00 0.00 0.00 57 1018.0
20260506162502 58 81 4.3 16.5 0.00 0.00 0.00 58 1018.3
20260506162002 59 84 7.0 16.5 0.00 0.00 0.00 57 1018.2
20260506161502 58 87 7.0 16.5 0.00 0.00 0.00 58 1017.6
20260506161003 58 82 5.2 16.5 0.00 0.00 0.00 59 1017.5
20260506160503 57 71 5.2 16.5 0.00 0.00 0.00 60 1017.7
20260506160003 56 65 7.8 15.6 0.00 0.00 0.00 60 1017.7
20260506155523 56 84 7.0 13.9 0.00 0.00 0.00 60 1017.7
20260506155023 56 86 6.1 14.8 0.00 0.00 0.00 60 1017.8
20260506154503 55 75 7.0 14.8 0.00 0.00 0.00 60 1017.8
20260506154002 56 94 7.0 14.8 0.00 0.00 0.00 62 1017.8
20260506153502 55 73 7.0 14.8 0.00 0.00 0.00 62 1017.9
20260506153003 55 49 5.2 13.9 0.00 0.00 0.00 63 1017.8
20260506152502 55 96 7.0 13.9 0.00 0.00 0.00 63 1018.0
20260506152002 55 120 7.0 13.0 0.00 0.00 0.00 64 1018.0
20260506151503 54 112 4.3 13.0 0.00 0.00 0.00 67 1017.3
20260506151024 54 50 5.2 13.0 0.00 0.00 0.00 69 1018.2
20260506150503 52 78 6.1 15.6 0.00 0.00 0.00 69 1017.8
20260506150003 52 43 3.5 15.6 0.00 0.00 0.00 69 1017.8
20260506145502 52 78 5.2 15.6 0.00 0.00 0.00 71 1017.6
20260506145002 51 94 3.5 15.6 0.00 0.00 0.00 73 1017.7
20260506144503 51 108 7.0 15.6 0.00 0.00 0.00 72 1017.5
20260506144003 51 76 5.2 13.9 0.00 0.00 0.00 75 1017.3
20260506143503 51 60 6.1 13.0 0.00 0.00 0.00 75 1016.6
20260506143024 50 72 6.1 13.0 0.00 0.00 0.00 75 1017.1
20260506142502 50 352 4.3 12.2 0.00 0.00 0.00 76 1017.1
20260506142003 50 65 3.5 14.8 0.00 0.00 0.00 76 1017.0
20260506141503 50 83 5.2 14.8 0.00 0.00 0.00 76 1017.3
20260506141023 50 72 5.2 13.0 0.00 0.00 0.00 76 1017.3
20260506140502 50 40 5.2 13.0 0.00 0.00 0.00 77 1017.1
20260506140003 50 77 5.2 14.8 0.00 0.00 0.00 77 1017.3
20260506135503 50 31 4.3 14.8 0.00 0.00 0.00 78 1017.0
20260506135003 50 60 5.2 13.0 0.00 0.00 0.00 78 1017.3
20260506134523 50 59 5.2 13.0 0.00 0.00 0.00 79 1017.4
20260506134003 50 47 6.1 13.0 0.00 0.00 0.00 79 1017.2
20260506133502 49 22 2.6 11.3 0.00 0.00 0.00 79 1017.2
20260506133002 49 43 3.5 11.3 0.00 0.00 0.00 80 1017.2
20260506132502 49 34 4.3 11.3 0.00 0.00 0.00 80 1017.5
20260506132002 49 73 3.5 11.3 0.00 0.00 0.00 80 1017.6
20260506131523 49 87 0.9 11.3 0.00 0.00 0.00 81 1017.2
20260506131002 49 78 3.5 11.3 0.00 0.00 0.00 81 1017.5
20260506130502 49 78 2.6 13.0 0.00 0.00 0.00 81 1017.0
20260506130003 49 37 2.6 13.0 0.00 0.00 0.00 81 1016.9
20260506125524 49 48 3.5 13.0 0.00 0.00 0.00 81 1017.3
20260506125023 49 40 2.6 11.3 0.00 0.00 0.00 81 1016.8
20260506124502 49 39 6.1 12.2 0.00 0.00 0.00 81 1016.9
20260506124024 49 53 1.7 13.0 0.00 0.00 0.00 82 1016.8
20260506123503 48 52 4.3 13.0 0.00 0.00 0.00 82 1016.6
20260506123003 48 50 5.2 11.3 0.00 0.00 0.00 82 1016.4
20260506122502 48 32 4.3 11.3 0.00 0.00 0.00 82 1016.5
20260506122002 48 42 4.3 11.3 0.00 0.00 0.00 82 1016.6
20260506121503 48 54 4.3 9.6 0.00 0.00 0.00 82 1016.0
20260506121003 48 39 3.5 13.0 0.00 0.00 0.00 82 1016.2
20260506120523 48 70 4.3 13.0 0.00 0.00 0.00 82 1016.1
20260506120003 48 62 4.3 9.6 0.00 0.00 0.00 82 1016.2
20260506115502 48 42 3.5 12.2 0.00 0.00 0.00 82 1016.2
20260506115003 48 55 3.5 12.2 0.00 0.00 0.00 82 1015.8
20260506114502 48 55 4.3 9.6 0.00 0.00 0.00 82 1015.8
20260506114003 48 33 5.2 9.6 0.00 0.00 0.00 82 1016.0
20260506113503 48 16 2.6 8.7 0.00 0.00 0.00 81 1015.9
20260506113024 48 23 3.5 8.7 0.00 0.00 0.00 81 1015.5
20260506112503 48 12 3.5 9.6 0.00 0.00 0.00 81 1015.6
20260506112003 48 27 1.7 9.6 0.00 0.00 0.00 81 1015.4
20260506111524 48 24 4.3 9.6 0.00 0.00 0.00 80 1015.5
20260506111003 48 58 2.6 9.6 0.00 0.00 0.00 80 1015.6
20260506110502 48 40 4.3 12.2 0.00 0.00 0.00 80 1015.6
20260506110003 48 68 2.6 12.2 0.00 0.00 0.00 80 1015.4
20260506105502 48 13 3.5 8.7 0.00 0.00 0.00 80 1015.4
20260506105003 49 37 4.3 9.6 0.00 0.00 0.00 80 1015.5
20260506104503 49 26 2.6 9.6 0.00 0.00 0.00 80 1015.9
20260506104024 49 20 3.5 9.6 0.00 0.00 0.00 80 1016.4
20260506103503 49 345 1.7 6.1 0.00 0.00 0.00 80 1016.0
20260506103002 49 10 3.5 7.8 0.00 0.00 0.00 79 1016.4
20260506102503 49 35 2.6 7.8 0.00 0.00 0.00 79 1016.0
20260506102002 49 41 2.6 6.1 0.00 0.00 0.00 79 1015.7
20260506101503 49 35 0.9 5.2 0.00 0.00 0.00 79 1016.1
20260506101002 49 23 1.7 5.2 0.00 0.00 0.00 79 1015.7
20260506100502 49 312 0.0 6.1 0.00 0.00 0.00 79 1016.0
20260506100003 49 8 0.9 6.1 0.00 0.00 0.00 79 1015.9
20260506095502 49 79 0.9 5.2 0.00 0.00 0.00 78 1015.8
20260506095003 49 21 1.7 5.2 0.00 0.00 0.00 78 1015.7
20260506094524 49 116 0.9 7.0 0.00 0.00 0.00 78 1015.5
20260506094002 49 46 1.7 7.0 0.00 0.00 0.00 78 1015.7
20260506093502 49 54 0.9 7.8 0.00 0.00 0.00 77 1015.5
20260506093003 49 71 2.6 7.8 0.00 0.00 0.00 77 1015.0
20260506092503 49 27 4.3 7.8 0.00 0.00 0.00 77 1015.0
20260506092002 49 32 2.6 7.8 0.00 0.00 0.00 76 1014.7
20260506091503 49 22 2.6 7.8 0.00 0.00 0.00 76 1015.0
20260506091003 49 15 1.7 7.8 0.00 0.00 0.00 76 1014.7
20260506090503 49 348 3.5 7.0 0.00 0.00 0.00 76 1014.5
20260506090003 49 38 2.6 7.0 0.00 0.00 0.00 76 1014.6
20260506085502 49 10 2.6 7.8 0.00 0.00 0.00 76 1014.7
20260506085003 49 334 0.9 9.6 0.00 0.00 0.00 75 1014.7
20260506084503 49 21 3.5 11.3 0.00 0.00 0.00 75 1014.9
20260506084003 49 352 4.3 11.3 0.00 0.00 0.00 75 1014.9
20260506083503 49 24 2.6 7.8 0.00 0.00 0.00 75 1014.9
20260506083003 49 49 1.7 7.0 0.00 0.00 0.00 75 1014.7
20260506082503 49 345 1.7 7.0 0.00 0.00 0.00 75 1014.0
20260506082024 49 350 3.5 11.3 0.00 0.00 0.00 75 1014.0
20260506081503 49 9 3.5 11.3 0.00 0.00 0.00 74 1013.8
20260506081003 49 7 1.7 9.6 0.00 0.00 0.00 75 1014.0
20260506080502 49 6 3.5 9.6 0.00 0.00 0.00 74 1013.8
20260506073524 49 18 1.7 8.7 0.00 0.00 0.00 74 1013.7
20260506073002 49 90 0.9 8.7 0.00 0.00 0.00 74 1013.7
20260506072502 49 26 1.7 8.7 0.00 0.00 0.00 74 1013.3
20260506072023 49 42 1.7 11.3 0.00 0.00 0.00 74 1013.2
20260506071503 49 41 2.6 11.3 0.00 0.00 0.00 74 1013.5
20260506071003 49 66 2.6 6.1 0.00 0.00 0.00 74 1013.1
20260506070523 49 34 1.7 7.0 0.00 0.00 0.00 74 1013.4
20260506062503 49 42 2.6 7.0 0.00 0.00 0.00 73 1013.6
20260506062003 49 56 0.9 7.0 0.00 0.00 0.00 73 1013.6
20260506061523 49 64 2.6 11.3 0.00 0.00 0.00 73 1013.3
20260506061002 49 37 2.6 11.3 0.00 0.00 0.00 73 1013.5
20260506060503 49 42 3.5 12.2 0.00 0.00 0.00 73 1013.6
20260506051002 49 74 4.3 9.6 0.00 0.00 0.00 71 1013.6
20260506050503 49 62 2.6 7.8 0.00 0.00 0.00 71 1013.0
20260506045002 49 39 2.6 11.3 0.00 0.00 0.00 72 1013.7
20260506044503 49 57 3.5 12.2 0.00 0.00 0.00 72 1013.1
20260506044002 49 49 3.5 12.2 0.00 0.00 0.00 72 1013.3
20260506043502 50 37 4.3 12.2 0.00 0.00 0.00 72 1013.7
20260506043003 49 84 2.6 11.3 0.00 0.00 0.00 73 1013.2
20260506042503 50 33 3.5 13.0 0.00 0.00 0.00 73 1013.5
20260506042024 50 46 4.3 13.0 0.00 0.00 0.00 73 1013.3
20260506041502 50 69 6.1 13.0 0.00 0.00 0.00 74 1013.2
20260506041002 50 53 6.1 12.2 0.00 0.00 0.00 75 1013.5
20260506040524 50 39 2.6 14.8 0.00 0.00 0.00 75 1013.5
20260506040024 50 37 3.5 15.6 0.00 0.00 0.00 75 1013.6
20260506035503 49 44 6.1 15.6 0.00 0.00 0.00 76 1013.2
20260506035002 49 35 5.2 12.2 0.00 0.00 0.00 78 1013.5
20260506034502 49 88 0.9 9.6 0.00 0.00 0.00 78 1013.3
20260506034003 49 34 3.5 11.3 0.00 0.00 0.00 79 1013.2
20260506033503 49 51 5.2 11.3 0.00 0.00 0.00 79 1013.1
20260506033003 49 65 2.6 11.3 0.00 0.00 0.00 79 1012.8